DW5678 Kavala GR current weather conditions

sailwx.info

Wind from 030

Air temperature 5.0° C
Dewpoint -0.6° C

Last reported at 2017-Jan-22 15:45 UTC.
Time now 2017-Jan-22 16:25 UTC

Location: N 40°56' E 024°24'.
View on Google Maps.

See reports from other nearby stations

  
Tides and Currents Weather Stations Pressure Air Temp Water Temp Dewpoint Dewpoint Depression Visibility Wind Speed Wind Dir Waves Ship Positions
date/time (UTC)wind fromknots sea level pressurealtimeterstation pressurevisibilityair tempwater tempwave heightnotes
2017-Jan-22 15:45 030 5.0
2017-Jan-22 15:30 027 1 gusting 5 5.6
2017-Jan-22 15:15 061 0 gusting 4 6.1
2017-Jan-22 15:00 046 0 gusting 2 6.1
2017-Jan-22 14:30 037 6.7
2017-Jan-22 14:00 030 0 gusting 4 6.7
2017-Jan-22 13:30 165 0 gusting 2 6.7
2017-Jan-22 13:15 128 1 gusting 6 6.7
2017-Jan-22 13:00 115 1 gusting 5 7.2
2017-Jan-22 12:45 067 1 gusting 5 6.7
2017-Jan-22 12:30 193 0 gusting 4 7.2
2017-Jan-22 12:15 177 1 gusting 5 6.7
2017-Jan-22 11:15 203 1 gusting 5 6.7
2017-Jan-22 11:00 130 1 gusting 5 6.7
2017-Jan-22 10:30 031 0 gusting 6 5.6
2017-Jan-22 10:15 046 0 gusting 4 6.1
2017-Jan-22 10:00 234 2 gusting 5 5.6
2017-Jan-22 09:45 117 2 gusting 5 5.0
2017-Jan-22 09:30 217 0 gusting 5 5.0
2017-Jan-22 08:30 273 1 gusting 6 3.9
2017-Jan-22 08:00 258 0 gusting 4 3.9
2017-Jan-22 07:45 258 1 gusting 4 3.9
2017-Jan-22 07:30 025 3.9
2017-Jan-22 07:15 025 3.3
2017-Jan-22 07:00 025 3.3
2017-Jan-22 06:45 025 2.8
2017-Jan-22 06:00 025 1.1
2017-Jan-22 05:45 024 1.1
2017-Jan-22 05:30 025 1.1
2017-Jan-22 05:00 025 1.1
2017-Jan-22 04:45 025 1.1
2017-Jan-22 04:30 025 1.7
2017-Jan-22 04:00 025 1.7
2017-Jan-22 03:45 025 1.7
2017-Jan-22 03:30 025 1.7
2017-Jan-22 03:15 025 1.7
2017-Jan-22 02:30 024 1.7
2017-Jan-22 02:00 025 2.2
2017-Jan-22 01:45 024 2.2
2017-Jan-22 01:30 025 2.2
2017-Jan-22 01:15 025 2.2
2017-Jan-22 01:00 010 2.2
2017-Jan-22 00:45 010 2.8
2017-Jan-22 00:30 010 2.8
2017-Jan-22 00:15 335 0 gusting 8 2.8
2017-Jan-22 00:00 079 2 gusting 7 2.8
2017-Jan-21 23:30 117 0 gusting 5 2.8
2017-Jan-21 23:15 005 1 gusting 4 2.8
2017-Jan-21 23:00 329 2.8
2017-Jan-21 22:45 227 2.8
2017-Jan-21 22:30 227 2.8
2017-Jan-21 22:00 227 2.8
2017-Jan-21 21:30 227 2.8
2017-Jan-21 21:15 227 2.8
2017-Jan-21 21:00 227 2.8
2017-Jan-21 20:45 227 2.8
2017-Jan-21 20:30 227 2.8
2017-Jan-21 20:00 227 3.3
2017-Jan-21 19:45 227 3.3
2017-Jan-21 19:30 227 3.3
2017-Jan-21 19:15 227 3.3
2017-Jan-21 19:00 227 3.3
2017-Jan-21 18:45 227 3.3
2017-Jan-21 18:15 227 3.9
2017-Jan-21 17:45 227 3.9
2017-Jan-21 17:30 227 3.9
2017-Jan-21 17:15 227 3.9
2017-Jan-21 16:15 227 4.4
2017-Jan-21 15:45 227 5.0
2017-Jan-21 15:30 227 5.0
2017-Jan-21 15:15 227 5.6
2017-Jan-21 15:00 227 5.6
2017-Jan-21 14:45 227 5.6
2017-Jan-21 14:00 133 5.6
2017-Jan-21 13:45 133 0 gusting 2 5.6
2017-Jan-21 13:30 222 5.6
2017-Jan-21 13:15 134 0 gusting 2 5.6
2017-Jan-21 13:00 149 0 gusting 4 6.1
2017-Jan-21 12:30 193 0 gusting 4 6.1
2017-Jan-21 11:30 200 6.1
2017-Jan-21 11:15 198 1 gusting 4 5.6
2017-Jan-21 11:00 076 0 gusting 4 5.6
2017-Jan-21 10:45 211 0 gusting 5 5.6
2017-Jan-21 10:30 110 1 gusting 6 5.0
2017-Jan-21 10:15 126 2 gusting 4 5.0
2017-Jan-21 09:45 152 0 gusting 4 3.9
2017-Jan-21 09:30 194 0 gusting 5 4.4
2017-Jan-21 09:15 141 0 gusting 5 3.9
2017-Jan-21 09:00 242 0 gusting 4 3.9
2017-Jan-21 08:30 149 0 gusting 5 3.3
2017-Jan-21 08:15 206 0 gusting 2 3.3
2017-Jan-21 07:30 175 0 gusting 2 3.3
2017-Jan-21 07:00 044 2.8
2017-Jan-21 06:45 023 2.2
2017-Jan-21 06:00 023 1.7
2017-Jan-21 05:45 023 1.1
2017-Jan-21 05:30 023 1.1
2017-Jan-21 05:15 023 1.1
2017-Jan-21 05:00 023 1.1
2017-Jan-21 04:30 023 1.7
2017-Jan-21 04:15 023 1.7
2017-Jan-21 04:00 024 1.7
2017-Jan-21 03:45 024 1.7
2017-Jan-21 03:30 024 1.7
2017-Jan-21 03:15 024 1.7
2017-Jan-21 03:00 023 1.7
2017-Jan-21 02:15 023 1.1
2017-Jan-21 02:00 023 1.1
2017-Jan-21 01:45 023 1.1
2017-Jan-21 01:30 023 1.1
2017-Jan-21 01:15 023 1.1
2017-Jan-21 01:00 023 1.1
2017-Jan-21 00:45 026 1.1
2017-Jan-21 00:30 026 1.1
2017-Jan-21 00:00 026 1.1
2017-Jan-20 23:45 026 1.7
2017-Jan-20 23:00 026 1.7
2017-Jan-20 22:45 026 0 gusting 2 2.8
2017-Jan-20 22:15 026 2.8
2017-Jan-20 22:00 026 3.3
2017-Jan-20 21:45 026 2.8
2017-Jan-20 21:30 026 2.8
2017-Jan-20 21:00 026 2.8
2017-Jan-20 20:45 026 0 gusting 4 2.8
2017-Jan-20 20:30 028 0 gusting 2 3.3
2017-Jan-20 20:15 066 3.3
2017-Jan-20 20:00 036 3.3
2017-Jan-20 19:30 048 0 gusting 4 3.9
2017-Jan-20 19:15 061 1 gusting 6 3.3
2017-Jan-20 18:15 048 2 gusting 5 3.9
2017-Jan-20 18:00 048 2 gusting 6 3.9
2017-Jan-20 17:30 026 2 gusting 6 4.4
2017-Jan-20 17:15 024 3 gusting 6 4.4
2017-Jan-20 16:45 022 0 gusting 6 5.0
2017-Jan-20 16:30 055 2 gusting 5 5.0
2017-Jan-20 16:15 030 2 gusting 6 5.0
2017-Jan-20 16:00 023 1 gusting 6 5.0